Regional Weather Roundup
Issued by NWS Sterling, VA

Home | Current Version | Previous Version | Text Only | Print | Product List | Glossary Off
Versions: 1 2 3 4 5 6 7 8 9 10 11 12 13 14 15 16 17 18 19 20 21 22 23 24 25 26 27 28 29 30 31 32 33 34 35 36 37 38 39 40 41 42 43 44 45 46 47 48 49 50

000
ASUS41 KLWX 291811
RWRLWX

REGIONAL WEATHER ROUNDUP
NATIONAL WEATHER SERVICE BALTIMORE MD/WASHINGTON DC
200 PM EDT SAT APR 29 2017

Note: "FAIR" indicates few or no clouds below 12,000 feet
with no significant weather and/or obstructions to visibility.
 TC=TEMPERATURE CELSIUS

 * =Non NWS site. Station does not report precipitation (e.g. rain,
    snow, etc.), thunder, or fog.

DCZ001-MDZ009-015-VAZ040>042-051-053>054-291900-
WASHINGTON METRO

CITY           SKY/WX    TMP DP  RH WIND       PRES   REMARKS
WASHINGTON NAT CLOUDY    88  67  49 SW16      30.05S HX  91
DULLES         PTSUNNY   87  64  46 S16G24    30.05F
ANDREWS AFB    SUNNY     88  64  45 SW15      30.05S
FT BELVOIR     CLOUDY    86  69  55 S9        30.05F HX  90
QUANTICO       SUNNY     81  72  74 S7        30.06F
COLLEGE PARK*  CLOUDY    87  63  44 SW9       30.04S
LEESBURG*      CLOUDY    90  66  45 SW3G9     30.06F HX  92
MANASSAS*        N/A     88  67  49 SW12G20   30.06F HX  91

$$

MDZ006>007-011-014-291900-
BALTIMORE METRO

CITY           SKY/WX    TMP DP  RH WIND       PRES   REMARKS
BWI AIRPORT    CLOUDY    88  64  44 SW8       30.02F
MD SCIENCE CTR   N/A     90  59  35 MISG      30.02S
MARTIN STATE   CLOUDY    88  64  45 SW10G21   30.03F
ANNAPOLIS      CLOUDY    88  66  48 SW8G18    30.02F HX  90
FORT MEADE*    MOSUNNY   86  63  45 SW8G17    30.06R

$$

MDZ012-015-019>023-291900-
MARYLAND EASTERN SHORE

CITY           SKY/WX    TMP DP  RH WIND       PRES   REMARKS
OCEAN CITY     MOSUNNY   87  71  58 W8        30.05F HX  93
SALISBURY      MOSUNNY   87  70  56 W13G18    30.04F HX  92
BAY BRIDGE AP* MOSUNNY   88  68  51 S13       30.03S HX  91
CAMBRIDGE*     SUNNY     86  68  54 SW10      30.05S
EASTON*        MOSUNNY   86  66  51 SW16      30.08S

$$

MDZ017>025-291900-
SOUTHERN MARYLAND

CITY           SKY/WX    TMP DP  RH WIND       PRES   REMARKS
PATUXENT RIVER PTSUNNY   87  73  62 SW15G23   30.06F HX  94
ST INIGOES     MOSUNNY   87  71  58 S12       30.06F HX  93
LEONARDTOWN*   MOSUNNY   86  70  58 SW9       30.08F HX  90

$$

MDZ003>005-291900-
NORTH CENTRAL MARYLAND

CITY           SKY/WX    TMP DP  RH WIND       PRES   REMARKS
FREDERICK*     SUNNY     88  70  55 SW13      30.08S HX  92
HAGERSTOWN APT CLOUDY    82  63  52 SW8       30.07R
WESTMINSTER*   CLOUDY    84  63  48 W13G18    30.07R

$$

MDZ501>502-291900-
WESTERN MARYLAND

CITY           SKY/WX    TMP DP  RH WIND       PRES   REMARKS
OAKLAND*         N/A     70  57  64 W8G22     30.21S
CUMBERLAND*    CLOUDY    82  64  54 CALM      30.13R

$$

VAZ025>031-291900-
SHENANDOAH VALLEY

CITY           SKY/WX    TMP DP  RH WIND       PRES   REMARKS
WINCHESTER*    MOSUNNY   82  64  54 SW9       30.08R
FRONT ROYAL*   CLOUDY    86  64  48 SW5       30.07S
LURAY*         MOSUNNY   86  63  45 S9        30.09F
NEW MARKET*    MOSUNNY   86  64  47 SW8G20    30.08F
STAUNTON*      CLOUDY    85  65  50 SW12      30.13F
WAYNESBORO*    CLOUDY    84  66  54 W3        30.13F

$$

WVZ021-048>050-054>055-291900-
EASTERN WEST VIRGINIA PANHANDLE

CITY           SKY/WX    TMP DP  RH WIND       PRES   REMARKS
MARTINSBURG    CLOUDY    83  64  52 SW8       30.06S
PETERSBURG*    CLOUDY    85  64  49 CALM      30.10S

$$

VAZ036>039-050-291900-
CENTRAL FOOTHILLS

CITY           SKY/WX    TMP DP  RH WIND       PRES   REMARKS
CHARLOTTESVILL CLOUDY    88  68  51 S8G16     30.09F HX  91
CULPEPER*      CLOUDY    88  67  50 SW9       30.08F HX  91
ORANGE*        CLOUDY    86  68  54 W10       30.08F
GORDONSVILLE*  CLOUDY    88  67  49 SW13      30.08F HX  90
WARRENTON*     CLOUDY    89  63  41 S10G16    30.07S

$$

VAZ055>057-291900-
NORTH AND CENTRAL PIEDMONT

CITY           SKY/WX    TMP DP  RH WIND       PRES   REMARKS
FREDERICKSBRG* SUNNY     89  68  50 S10       30.06F HX  93
STAFFORD*      CLOUDY    86  67  51 SW8       30.10F

$$

NCZ024-NYZ072-PAZ021-071-VAZ022-071-291900-
OTHER REGIONAL OBSERVATIONS

CITY           SKY/WX    TMP DP  RH WIND       PRES   REMARKS
NEW YORK CITY  CLOUDY    82  61  48 VRB7      29.97S
PHILADELPHIA   PTSUNNY   84  62  47 SW15      30.01R
PITTSBURGH     TSTM      64  64 100 CALM      30.14F
ROANOKE        PTSUNNY   85  68  56 VRB6      30.14F
RICHMOND       PTSUNNY   87  73  62 SW9       30.10F HX  94
RALEIGH        PTSUNNY   87  71  58 SW12      30.17F HX  93

$$

ANZ530>537-291900-
MARINE OBSERVATIONS

STATION/POSITION TIME  TEMP    WIND        PRES
                       AIR SEA DIR/SP/G
                 (UTC) (F)     (DEG/KT/KT) (MB)
THOMAS PT LIGHT  1800   71 62  180/ 11/ 12   N/A
BALT KEY BRIDGE  1748   85     240/ 13/ 16 1016.6F
COVE POINT       1748   84     250/  9/ 14 1018.3F
LEWISETTA        1748   83 71  250/  8/ 10 1018.1F
SOLOMONS ISLAND  1748   80 61  230/ 13/ 17   N/A
PINEY POINT      1736          240/  8/ 10   N/A

$$




USA.gov is the U.S. government's official web portal to all federal, state and local government web resources and services.